When you browse on this site, cookies collect data to enhance your experience and personalize the content and advertising you see.
Visit our Privacy Policy to learn more. By continuing to use the site, you agree to this use of cookies and data.
  • In Romania
  • List of Countries
  • For 7 days
  • Water Temperature
  • Satellite Maps
  • Weather Map
  • Weather Widgets
  • user-avatar
    Login

    Hourly Weather Wrocimowice

    Today, 23 May, Thursday

    Time Temperature Precipitation Wind Pressure Humidity
    00:00 +12°C° 0.2 mm 4 mps 734 mmHg 96%
    01:00 +12°C° 0 mm 5 mps 734 mmHg 96%
    02:00 +12°C° 0.2 mm 5 mps 734 mmHg 96%
    03:00 +12°C° 0.2 mm 5 mps 734 mmHg 96%
    04:00 +12°C° 0.2 mm 5 mps 734 mmHg 96%
    05:00 +13°C° 0.9 mm 5 mps 735 mmHg 95%
    06:00 +13°C° 0.9 mm 5 mps 735 mmHg 95%
    07:00 +13°C° 0.9 mm 4 mps 735 mmHg 95%
    08:00 +13°C° 1.9 mm 5 mps 735 mmHg 94%
    09:00 +14°C° 1.9 mm 5 mps 735 mmHg 93%
    10:00 +14°C° 1.9 mm 5 mps 736 mmHg 93%
    11:00 +14°C° 1.2 mm 5 mps 736 mmHg 92%
    12:00 +14°C° 1.2 mm 6 mps 736 mmHg 92%
    13:00 +14°C° 1.2 mm 7 mps 736 mmHg 91%
    14:00 +14°C° 1.2 mm 7 mps 736 mmHg 92%
    15:00 +12°C° 1.2 mm 7 mps 737 mmHg 92%
    16:00 +12°C° 1.2 mm 7 mps 737 mmHg 93%
    17:00 +13°C° 1.1 mm 6 mps 737 mmHg 93%
    18:00 +11°C° 1.1 mm 6 mps 737 mmHg 94%
    19:00 +11°C° 1.1 mm 6 mps 737 mmHg 94%
    20:00 +11°C° 1.1 mm 6 mps 737 mmHg 95%
    21:00 +12°C° 1.1 mm 5 mps 737 mmHg 95%
    22:00 +12°C° 1.1 mm 5 mps 737 mmHg 95%
    23:00 +12°C° 0.9 mm 5 mps 737 mmHg 95%

    Tomorrow, 24 May, Friday

    Time Temperature Precipitation Wind Pressure Humidity
    00:00 +12°C° 0.9 mm 5 mps 738 mmHg 95%
    01:00 +12°C° 0.9 mm 5 mps 738 mmHg 95%
    02:00 +12°C° 0.6 mm 5 mps 738 mmHg 96%
    03:00 +12°C° 0.6 mm 4 mps 738 mmHg 96%
    04:00 +11°C° 0.6 mm 4 mps 737 mmHg 96%
    05:00 +11°C° 0.4 mm 4 mps 738 mmHg 95%
    06:00 +11°C° 0.4 mm 3 mps 738 mmHg 94%
    07:00 +11°C° 0.4 mm 3 mps 738 mmHg 94%
    08:00 +11°C° 0.1 mm 3 mps 738 mmHg 90%
    09:00 +12°C° 0.1 mm 3 mps 738 mmHg 87%
    10:00 +13°C° 0.1 mm 3 mps 738 mmHg 84%
    11:00 +14°C° 0 mm 3 mps 738 mmHg 79%
    12:00 +17°C° 0 mm 3 mps 737 mmHg 75%
    13:00 +18°C° 0 mm 3 mps 737 mmHg 70%
    14:00 +18°C° 0 mm 3 mps 737 mmHg 71%
    15:00 +19°C° 0 mm 3 mps 737 mmHg 71%
    16:00 +19°C° 0 mm 3 mps 737 mmHg 72%
    17:00 +18°C° 0 mm 3 mps 736 mmHg 76%
    18:00 +17°C° 0 mm 3 mps 736 mmHg 79%
    19:00 +16°C° 0 mm 2 mps 736 mmHg 82%
    20:00 +15°C° 0 mm 2 mps 736 mmHg 84%
    21:00 +14°C° 0 mm 2 mps 737 mmHg 85%
    22:00 +13°C° 0 mm 2 mps 737 mmHg 86%
    23:00 +12°C° 0 mm 2 mps 737 mmHg 87%

    Day after tomorrow, 25 May, Saturday

    Time Temperature Precipitation Wind Pressure Humidity
    00:00 +12°C° 0 mm 2 mps 737 mmHg 88%
    01:00 +10°C° 0 mm 2 mps 737 mmHg 89%
    02:00 +10°C° 0 mm 2 mps 737 mmHg 89%
    03:00 +10°C° 0 mm 2 mps 737 mmHg 90%
    04:00 +9°C° 0 mm 2 mps 737 mmHg 90%
    05:00 +12°C° 0 mm 2 mps 737 mmHg 86%
    06:00 +14°C° 0 mm 2 mps 737 mmHg 83%
    07:00 +15°C° 0 mm 2 mps 737 mmHg 79%
    08:00 +17°C° 0 mm 2 mps 737 mmHg 72%
    09:00 +18°C° 0 mm 3 mps 737 mmHg 66%
    10:00 +20°C° 0 mm 3 mps 737 mmHg 59%
    11:00 +20°C° 0 mm 3 mps 737 mmHg 58%
    12:00 +21°C° 0 mm 3 mps 737 mmHg 56%
    13:00 +22°C° 0 mm 3 mps 736 mmHg 54%
    14:00 +22°C° 0.2 mm 3 mps 736 mmHg 59%
    15:00 +21°C° 0.2 mm 3 mps 736 mmHg 63%
    16:00 +21°C° 0.2 mm 4 mps 736 mmHg 67%
    17:00 +20°C° 0.3 mm 3 mps 736 mmHg 73%
    18:00 +18°C° 0.3 mm 3 mps 736 mmHg 78%
    19:00 +17°C° 0.3 mm 2 mps 736 mmHg 84%
    20:00 +16°C° 0 mm 2 mps 736 mmHg 86%
    21:00 +15°C° 0 mm 2 mps 736 mmHg 87%
    22:00 +14°C° 0 mm 1 mps 737 mmHg 89%
    23:00 +13°C° 0 mm 1 mps 737 mmHg 89%

    26 May, Sunday

    Time Temperature Precipitation Wind Pressure Humidity
    00:00 +13°C° 0 mm 1 mps 737 mmHg 89%
    01:00 +12°C° 0 mm 1 mps 737 mmHg 89%
    02:00 +12°C° 0 mm 1 mps 736 mmHg 90%
    03:00 +12°C° 0 mm 1 mps 736 mmHg 91%
    04:00 +12°C° 0 mm 1 mps 736 mmHg 91%
    05:00 +13°C° 0 mm 1 mps 736 mmHg 89%
    06:00 +15°C° 0 mm 2 mps 736 mmHg 87%
    07:00 +16°C° 0 mm 2 mps 736 mmHg 84%
    08:00 +17°C° 0 mm 3 mps 736 mmHg 79%
    09:00 +19°C° 0 mm 3 mps 736 mmHg 74%
    10:00 +20°C° 0 mm 4 mps 736 mmHg 69%
    11:00 +20°C° 0.1 mm 4 mps 736 mmHg 67%
    12:00 +21°C° 0.1 mm 4 mps 736 mmHg 66%
    13:00 +21°C° 0.1 mm 4 mps 736 mmHg 64%
    14:00 +21°C° 0.5 mm 4 mps 735 mmHg 66%
    15:00 +21°C° 0.5 mm 4 mps 735 mmHg 68%
    16:00 +21°C° 0.5 mm 4 mps 735 mmHg 70%
    17:00 +19°C° 0.2 mm 3 mps 735 mmHg 74%
    18:00 +18°C° 0.2 mm 2 mps 735 mmHg 78%
    19:00 +17°C° 0.2 mm 2 mps 735 mmHg 82%
    20:00 +15°C° 0 mm 1 mps 736 mmHg 83%
    21:00 +14°C° 0 mm 1 mps 736 mmHg 85%
    22:00 +13°C° 0 mm 1 mps 736 mmHg 86%
    23:00 +13°C° 0 mm 1 mps 736 mmHg 87%

    27 May, Monday

    Time Temperature Precipitation Wind Pressure Humidity
    00:00 +12°C° 0 mm 1 mps 736 mmHg 87%
    01:00 +12°C° 0 mm 1 mps 736 mmHg 88%
    02:00 +11°C° 0 mm 1 mps 736 mmHg 88%
    03:00 +11°C° 0 mm 1 mps 736 mmHg 88%
    04:00 +11°C° 0 mm 1 mps 736 mmHg 88%
    05:00 +13°C° 0 mm 1 mps 736 mmHg 86%
    06:00 +15°C° 0 mm 2 mps 736 mmHg 83%
    07:00 +16°C° 0 mm 2 mps 736 mmHg 81%
    08:00 +18°C° 0 mm 2 mps 736 mmHg 77%
    09:00 +19°C° 0 mm 3 mps 736 mmHg 74%
    10:00 +21°C° 0 mm 3 mps 736 mmHg 71%
    11:00 +21°C° 0.1 mm 3 mps 735 mmHg 71%
    12:00 +21°C° 0.1 mm 3 mps 735 mmHg 71%
    13:00 +22°C° 0.1 mm 3 mps 734 mmHg 72%
    14:00 +21°C° 0.2 mm 2 mps 734 mmHg 77%
    15:00 +20°C° 0.2 mm 2 mps 733 mmHg 82%
    16:00 +20°C° 0.2 mm 2 mps 733 mmHg 87%
    17:00 +19°C° 0 mm 2 mps 733 mmHg 88%
    18:00 +18°C° 0 mm 2 mps 732 mmHg 89%
    19:00 +18°C° 0 mm 2 mps 732 mmHg 90%
    20:00 +17°C° 0.8 mm 2 mps 732 mmHg 92%
    21:00 +17°C° 0.8 mm 2 mps 731 mmHg 94%
    22:00 +16°C° 0.8 mm 2 mps 731 mmHg 96%
    23:00 +16°C° 1.5 mm 1 mps 731 mmHg 96%

    28 May, Tuesday

    Time Temperature Precipitation Wind Pressure Humidity
    00:00 +16°C° 1.5 mm 1 mps 730 mmHg 97%
    01:00 +16°C° 1.5 mm 1 mps 730 mmHg 97%
    02:00 +16°C° 0.3 mm 1 mps 730 mmHg 97%
    03:00 +16°C° 0.3 mm 2 mps 729 mmHg 96%
    04:00 +15°C° 0.3 mm 2 mps 729 mmHg 96%
    05:00 +17°C° 0 mm 2 mps 729 mmHg 92%
    06:00 +18°C° 0 mm 2 mps 729 mmHg 88%
    07:00 +19°C° 0 mm 2 mps 729 mmHg 84%
    08:00 +19°C° 1.3 mm 2 mps 729 mmHg 81%
    09:00 +20°C° 1.3 mm 2 mps 729 mmHg 78%
    10:00 +21°C° 1.3 mm 3 mps 729 mmHg 75%
    11:00 +21°C° 2.1 mm 3 mps 729 mmHg 75%
    12:00 +21°C° 2.1 mm 3 mps 729 mmHg 76%
    13:00 +21°C° 2.1 mm 4 mps 729 mmHg 77%
    14:00 +21°C° 0.6 mm 4 mps 729 mmHg 76%
    15:00 +21°C° 0.6 mm 3 mps 729 mmHg 74%
    16:00 +21°C° 0.6 mm 3 mps 729 mmHg 73%
    17:00 +20°C° 0.2 mm 3 mps 729 mmHg 76%
    18:00 +19°C° 0.2 mm 2 mps 729 mmHg 80%
    19:00 +19°C° 0.2 mm 1 mps 729 mmHg 84%
    20:00 +18°C° 0 mm 1 mps 729 mmHg 85%
    21:00 +16°C° 0 mm 1 mps 730 mmHg 87%
    22:00 +15°C° 0 mm 1 mps 730 mmHg 89%
    23:00 +15°C° 0 mm 1 mps 730 mmHg 89%
    Show more